Home   Weather   Gdynia   Past weeks

Flag for Poland Past Weather in Gdynia, Poland — Yesterday and Last 2 Weeks

43 °F


Feels Like: 36 °F
Forecast: 46 / 50 °F
Wind: 13 mph from Southeast

Location: Gdansk-Rebiechowo

Current Time: Oct 24, 2016 at 2:04:51 AM

Latest Report: Oct 24, 2016 at 1:30 AM

Visibility: 3 mi

Pressure: 30.15 "Hg

Humidity: 93%

Dew Point: 41 °F

Location of GdyniaLocation

Past Weather in Gdynia — Graph


Gdynia Temperature Yesterday

Maximum temperature yesterday: 45 °F (at 2:00 PM)
Minimum temperature yesterday: 41 °F (at 12:00 AM)
Average temperature yesterday: 43 °F

High & Low Weather Summary for the Past Weeks

High48 °F (Oct 10, 11:00 AM)100% (Oct 9, 1:00 AM)30.48 "Hg (Oct 9, 1:00 AM)
Low32 °F (Oct 14, 7:00 AM)62% (Oct 14, 2:00 PM)29.92 "Hg (Oct 22, 4:30 AM)
Average42 °F90%30.18 "Hg
* Reported Oct 9 1:00 AM — Oct 24 1:00 AM, Gdynia, Weather by CustomWeather, © 2016

Note: Actual official high and low records may vary slightly from our data, if they occured in-between our weather recording intervals... More about our weather records


Gdynia Weather History for the Previous 24 Hours

Scroll right to see more
Time TempWeatherWind HumidityBarometerVisibility
1:00 AM
Mon, Oct 24
43 °FFog.13 mph100%30.15 "Hg2 mi
12:30 AM43 °FFog.12 mph100%30.15 "Hg2 mi
12:00 AM43 °FFog.12 mph100%30.15 "Hg2 mi
11:30 PM
Sun, Oct 23
43 °FSprinkles. Fog.12 mph100%30.15 "Hg2 mi
11:00 PM45 °FSprinkles. Fog.9 mph93%30.15 "Hg2 mi
10:30 PM45 °FFog.8 mph93%30.15 "Hg2 mi
10:00 PM43 °FFog.8 mph100%30.15 "Hg2 mi
9:30 PM45 °FSprinkles. Fog.9 mph93%30.15 "Hg2 mi
9:00 PM45 °FFog.8 mph93%30.15 "Hg2 mi
8:30 PM45 °FFog.8 mph93%30.15 "Hg2 mi
8:00 PM43 °FFog.7 mph100%30.15 "Hg2 mi
7:30 PM43 °FPartly cloudy.5 mph93%30.15 "HgN/A
7:00 PM43 °FPassing clouds.6 mph93%30.12 "HgN/A
6:30 PM43 °FPassing clouds.7 mph93%30.12 "Hg4 mi
6:00 PM43 °FSprinkles. Fog.10 mph100%30.12 "Hg2 mi
5:30 PM45 °FFog.8 mph93%30.12 "Hg1 mi
5:00 PM45 °FFog.8 mph93%30.12 "Hg2 mi
4:30 PM45 °FFog.9 mph93%30.12 "Hg2 mi
4:00 PM45 °FFog.9 mph100%30.12 "Hg2 mi
3:30 PM45 °FFog.7 mph100%30.12 "Hg2 mi
3:00 PM45 °FFog.9 mph100%30.12 "Hg2 mi
2:00 PM45 °FFog.7 mph93%30.12 "Hg2 mi
1:30 PM43 °FFog.8 mph100%30.12 "Hg2 mi
1:00 PM43 °FFog.9 mph100%30.12 "Hg2 mi
12:30 PM43 °FFog.9 mph100%30.12 "Hg2 mi
12:00 PM41 °FFog.6 mph100%30.12 "Hg1 mi
11:30 AM41 °FFog.7 mph100%30.12 "Hg1 mi
11:00 AM41 °FFog.10 mph100%30.09 "Hg1 mi
10:30 AM41 °FFog.9 mph100%30.09 "Hg1 mi
10:00 AM43 °FFog.8 mph100%30.09 "Hg1 mi
9:30 AM43 °FFog.10 mph100%30.09 "Hg1 mi
9:00 AM43 °FFog.9 mph100%30.07 "Hg1 mi
8:30 AM43 °FSprinkles. Fog.9 mph100%30.07 "Hg1 mi
8:00 AM43 °FLight rain. Fog.6 mph100%30.07 "Hg1 mi
7:30 AM43 °FFog.5 mph100%30.04 "Hg1 mi
7:00 AM43 °FFog.3 mph100%30.04 "Hg2 mi
6:30 AM43 °FFog.3 mph100%30.04 "Hg1 mi
6:00 AM43 °FFog.3 mph93%30.04 "Hg2 mi
5:30 AM43 °FFog.3 mph100%30.04 "Hg1 mi
5:00 AM43 °FFog.5 mph100%30.01 "Hg1 mi
4:30 AM43 °FFog.3 mph100%30.01 "Hg1 mi
4:00 AM43 °FFog.5 mph93%30.01 "Hg1 mi
3:30 AM41 °FFog.3 mph100%30.01 "Hg2 mi
3:00 AM41 °FFog.2 mph100%30.01 "Hg2 mi
2:30 AM41 °FFog.3 mph100%30.01 "Hg1 mi
2:00 AM41 °FFog.5 mph100%30.01 "Hg0 mi
Weather by CustomWeather, © 2016

See weather overviewHow to use our weather pages